Regional Weather Roundup
Issued by NWS

Home | Current Version | Previous Version | Text Only | Print | Product List | Glossary Off
Versions: 1 2 3 4 5 6 7 8 9 10 11 12 13 14 15 16 17 18 19 20 21 22 23 24 25 26 27 28 29 30 31 32 33 34 35 36 37 38 39 40 41 42 43 44 45 46 47 48 49 50

000
ASUS43 KLOT 290310
RWRIL

ILLINOIS REGIONAL WEATHER ROUNDUP
NATIONAL WEATHER SERVICE CHICAGO/ROMEOVILLE IL
900 PM CST FRI NOV 28 2014

NOTE: "FAIR" INDICATES FEW OR NO CLOUDS BELOW 12,000 FEET WITH NO
SIGNIFICANT WEATHER AND/OR OBSTRUCTIONS TO VISIBILITY.

* THESE STATIONS ARE NOT UNDER NWS QUALITY CONTROL. THEY ALSO MAY NOT
  REPORT WEATHER SUCH AS PRECIPITATION OR FOG.

ILZ001-002-007-009-015-016-024-290400-
NORTHWEST ILLINOIS

CITY           SKY/WX    TMP DP  RH WIND       PRES   REMARKS
MOLINE         PTCLDY    32  28  85 E7        29.84R WCI  26
STERLING*      MOCLDY    28  25  86 SE5       29.87F WCI  23
SAVANNA*       MOCLDY    33  29  86 SE7       29.86F WCI  27
$$

ILZ003-004-008-010-011-017-018-290400-
NORTH CENTRAL ILLINOIS

CITY           SKY/WX    TMP DP  RH WIND       PRES   REMARKS
ROCKFORD       CLOUDY    33  29  85 S9        29.91F WCI  25
FREEPORT*      CLOUDY    32  29  88 CALM      29.89F
ROCHELLE*      MOCLDY    32  30  92 S10       29.90S WCI  23
DE KALB*       MOCLDY    32  29  90 SE13      29.90F FOG     WCI  22
PERU*          PTCLDY    34  32  90 S9        29.90S WCI  27
$$

ILZ005-006-012>014-019>023-290400-
NORTHEAST ILLINOIS

CITY           SKY/WX    TMP DP  RH WIND       PRES   REMARKS
CHICAGO-OHARE  CLOUDY    34  28  79 S12       29.93S WCI  25
CHICAGO-MIDWAY CLOUDY    36  29  75 S9G20     29.94S WCI  29
AURORA         MOCLDY    34  29  82 S7        29.93S WCI  28
LANSING*       CLOUDY    33  27  78 S14       29.94F WCI  23
JOLIET*        MOCLDY    34  30  84 S9        29.94S WCI  27
WAUKEGAN       CLOUDY    32  26  78 S9        29.92F WCI  24
DUPAGE AIRPORT CLOUDY    34  30  85 S9        29.92S WCI  27
KANKAKEE*      MOCLDY    33  29  86 SE9       29.95S WCI  25
WHEELING       CLOUDY    33  28  81 S8        29.95F WCI  26
MORRIS*        MOCLDY    33  32  94 S12       29.92S WCI  25
ROMEOVILLE*    CLOUDY    34  30  86 S12       29.93S WCI  25
NORTHERLY ISL    N/A     34  27  76 S3          N/A
$$

LMZ740>746-290400-
SOUTHERN LAKE MICHIGAN

STATION/POSITION SKY/WX   TEMP    WIND        PRES    VSBY  WAVE
                          AIR SEA DIR/SP/G                  HT/PER
                          (F)     (DEG/KT/KT) (MB)    (MI)  (FT/S)
SOUTHERN BUOY              36 42  180/ 21/ 25 1015.0R         6/ 6
WAUKEGAN HARBOR            34     180/ 12/ 16   N/A
HARRISON CRIB              34     180/ 17/ 19   N/A
BURNHAM HARBOR             35     180/  8/ 13   N/A
CALUMET HARBOR             34     170/  8/ 16 1012.6F
MICHIGAN CITY              32     140/ 15/ 20   N/A
$$

ILZ025>027-034>036-040-047-049-050-058-095>099-290400-
WEST-CENTRAL ILLINOIS

CITY           SKY/WX    TMP DP  RH WIND       PRES   REMARKS
QUINCY         CLEAR     43  32  65 S9        29.81F
GALESBURG*     CLEAR     35  32  90 SE7       29.83F WCI  29
MACOMB*        CLEAR     34  32  92 SE10      29.85F WCI  26
JACKSONVILLE*  CLEAR     41  34  74 S9        29.86F
PITTSFIELD*    CLEAR     39  33  80 S7        29.85F WCI  34
$$

ILZ028>032-037-038-041>044-048-051>054-059>061-290400-
CENTRAL ILLINOIS

CITY           SKY/WX    TMP DP  RH WIND       PRES   REMARKS
PONTIAC        PTCLDY    35  32  90 S15G21    29.92F WCI  25
BLOOMINGTON    CLEAR     35  32  89 S18       29.90F WCI  24
DECATUR        CLEAR     38  30  73 S16G28    29.92F WCI  29
PEORIA         PTCLDY    38  30  73 S16       29.88F WCI  29
LACON*         PTCLDY    36  30  79 S9        29.88F WCI  29
LINCOLN*       PTCLDY    37  32  81 S10       29.90F WCI  30
SPRINGFIELD    CLEAR     39  32  76 S18       29.89F WCI  30
TAYLORVILLE    CLEAR     36  32  87 S14       29.92F WCI  27
$$

ILZ033-039-045-046-055>057-062-063-290400-
EAST-CENTRAL ILLINOIS

CITY           SKY/WX    TMP DP  RH WIND       PRES   REMARKS
CHAMPAIGN      PTCLDY    34  30  85 S15       29.95F WCI  24
DANVILLE*      PTCLDY    34  28  76 S12       29.95F WCI  26
RANTOUL*       PTCLDY    34  31  88 S14       29.95F WCI  25
MATTOON        CLEAR     35  28  75 S12       29.96F WCI  27
PARIS*         PTCLDY    35  30  80 S14       29.99F WCI  26
$$

ILZ079-100>102-290400-
SOUTHWEST ILLINOIS

CITY           SKY/WX    TMP DP  RH WIND       PRES   REMARKS
ALTON          PTCLDY    41  32  70 S8        29.93
BELLEVILLE     CLEAR     41  36  81 S12       29.93F
CAHOKIA*       CLEAR     43  34  70 S7        29.92F
SPARTA*        CLEAR     43  32  65 S13G22    29.96F
$$

ILZ064>066-069>071-074>076-080>082-084>086-088>090-092>094-290400-
SOUTH-CENTRAL ILLINOIS

CITY           SKY/WX    TMP DP  RH WIND       PRES   REMARKS
CARBONDALE     CLEAR     44  28  53 S15       30.00F
CAIRO*         CLEAR     42  29  60 S6        30.05S
EFFINGHAM*     CLEAR     37  27  68 SE9       29.98F WCI  30
MARION         PTCLDY    43  28  56 S12       30.01F
MT. VERNON     CLEAR     37  27  65 S8        30.00S WCI  31
CENTRALIA*     CLEAR     39  29  66 S9        29.97F WCI  33
SALEM*           N/A     41  30  64 S7        29.97F
METROPOLIS*    CLEAR     44  29  56 S8          N/A
$$

ILZ067-068-072-073-078-083-087-091-290400-
SOUTHEAST ILLINOIS

CITY           SKY/WX    TMP DP  RH WIND       PRES   REMARKS
LAWRENCEVILLE  MOCLDY    35  29  78 S9        30.03F WCI  28
FLORA*         MOCLDY    34  29  85 S8        30.00F WCI  27
FAIRFIELD*     PTCLDY    38  29  69 S7        30.00F WCI  33
HARRISBURG*    PTCLDY    42  28  56 S9        30.03F
ROBINSON*      MOCLDY    36  28  74 S8        30.03F WCI  29
CARMI*         MOCLDY    35  32  89 SE7       30.03F WCI  29
$$

ABBREVIATIONS USED IN REMARKS
   TC - TEMPERATURE IN CELSIUS
  WCI - WIND CHILL INDEX
   HX - HEAT INDEX
  VSB - VISIBILITY
$$




USA.gov is the U.S. government's official web portal to all federal, state and local government web resources and services.